| time (UTC) | temp C | wind direction | speed KPH | gust KPH | rain 1hr cm | rain 24hr cm | rain mn cm | humidity % | barometer mb |
| 20260508044934 | 8 | 15 | 0.0 | 0.0 | 0.00 | 0.00 | 0.00 | 90 | 1014.4 |
| 20260508044431 | 8 | 15 | 0.0 | 0.0 | 0.00 | 0.00 | 0.00 | 90 | 1014.4 |
| 20260508043926 | 9 | 15 | 0.0 | 0.0 | 0.00 | 0.00 | 0.00 | 90 | 1014.5 |
| 20260508043424 | 9 | 15 | 0.0 | 0.0 | 0.00 | 0.00 | 0.00 | 90 | 1013.9 |
| 20260508042919 | 9 | 15 | 0.0 | 0.0 | 0.00 | 0.00 | 0.00 | 90 | 1014.0 |
| 20260508042418 | 9 | 15 | 0.0 | 0.0 | 0.00 | 0.00 | 0.00 | 90 | 1013.9 |
| 20260508041914 | 9 | 15 | 0.0 | 0.0 | 0.00 | 0.00 | 0.00 | 90 | 1013.8 |
| 20260508041411 | 9 | 15 | 0.0 | 0.0 | 0.00 | 0.00 | 0.00 | 90 | 1014.0 |
| 20260508040907 | 9 | 15 | 0.0 | 0.0 | 0.00 | 0.00 | 0.00 | 90 | 1014.0 |
| 20260508040405 | 9 | 15 | 0.0 | 0.0 | 0.00 | 0.00 | 0.00 | 90 | 1014.3 |
| 20260508035903 | 9 | 15 | 0.0 | 0.0 | 0.00 | 0.97 | 0.97 | 90 | 1014.0 |
| 20260508035359 | 10 | 15 | 0.0 | 0.0 | 0.00 | 0.97 | 0.97 | 90 | 1013.9 |
| 20260508034856 | 10 | 15 | 0.0 | 0.0 | 0.00 | 0.97 | 0.97 | 90 | 1013.9 |
| 20260508034354 | 10 | 15 | 0.0 | 0.0 | 0.00 | 0.97 | 0.97 | 90 | 1014.0 |
| 20260508033850 | 10 | 15 | 0.0 | 0.0 | 0.00 | 0.97 | 0.97 | 90 | 1013.8 |
| 20260508033348 | 10 | 15 | 0.0 | 1.6 | 0.00 | 0.97 | 0.97 | 90 | 1013.9 |
| 20260508032846 | 10 | 0 | 0.0 | 0.0 | 0.00 | 0.97 | 0.97 | 90 | 1013.9 |
| 20260508032343 | 10 | 0 | 0.0 | 0.0 | 0.00 | 0.97 | 0.97 | 90 | 1013.8 |
| 20260508031839 | 10 | 0 | 0.0 | 0.0 | 0.00 | 0.97 | 0.97 | 90 | 1013.8 |
| 20260508031336 | 10 | 0 | 0.0 | 0.0 | 0.00 | 0.97 | 0.97 | 90 | 1013.6 |
| 20260508030827 | 10 | 0 | 0.0 | 0.0 | 0.00 | 0.97 | 0.97 | 90 | 1013.7 |
| 20260508030324 | 10 | 0 | 0.0 | 0.0 | 0.00 | 0.97 | 0.97 | 90 | 1013.7 |
| 20260508025821 | 10 | 0 | 0.0 | 0.0 | 0.00 | 0.97 | 0.97 | 90 | 1013.8 |
| 20260508025318 | 10 | 0 | 0.0 | 0.0 | 0.00 | 0.97 | 0.97 | 90 | 1013.8 |
| 20260508024814 | 10 | 0 | 0.0 | 0.0 | 0.00 | 0.97 | 0.97 | 90 | 1013.8 |
| 20260508024311 | 10 | 0 | 0.0 | 0.0 | 0.00 | 0.97 | 0.97 | 90 | 1013.3 |
| 20260508023808 | 10 | 0 | 0.0 | 0.0 | 0.00 | 0.97 | 0.97 | 90 | 1013.6 |
| 20260508023305 | 10 | 0 | 0.0 | 0.0 | 0.00 | 0.97 | 0.97 | 90 | 1013.2 |
| 20260508022801 | 11 | 0 | 0.0 | 0.0 | 0.00 | 0.97 | 0.97 | 90 | 1013.1 |
| 20260508022257 | 11 | 0 | 0.0 | 0.0 | 0.00 | 0.97 | 0.97 | 90 | 1013.1 |
| 20260508021754 | 11 | 0 | 0.0 | 0.0 | 0.00 | 0.97 | 0.97 | 90 | 1013.2 |
| 20260508021250 | 11 | 0 | 0.0 | 0.0 | 0.00 | 0.97 | 0.97 | 90 | 1013.2 |
| 20260508020747 | 11 | 0 | 0.0 | 0.0 | 0.00 | 0.97 | 0.97 | 90 | 1013.3 |
| 20260508020245 | 11 | 0 | 0.0 | 0.0 | 0.00 | 0.97 | 0.97 | 90 | 1012.8 |
| 20260508015741 | 11 | 0 | 0.0 | 0.0 | 0.00 | 0.97 | 0.97 | 90 | 1012.9 |
| 20260508015238 | 11 | 0 | 0.0 | 0.0 | 0.00 | 0.97 | 0.97 | 90 | 1012.7 |
| 20260508014735 | 11 | 0 | 0.0 | 0.0 | 0.00 | 0.97 | 0.97 | 90 | 1012.8 |
| 20260508014232 | 11 | 0 | 0.0 | 0.0 | 0.00 | 0.97 | 0.97 | 90 | 1012.6 |
| 20260508013728 | 12 | 0 | 0.0 | 0.0 | 0.00 | 0.97 | 0.97 | 90 | 1012.7 |
| 20260508013224 | 12 | 0 | 0.0 | 0.0 | 0.00 | 0.97 | 0.97 | 90 | 1012.6 |
| 20260508012722 | 12 | 0 | 0.0 | 0.0 | 0.00 | 0.97 | 0.97 | 90 | 1012.3 |
| 20260508012219 | 12 | 0 | 0.0 | 0.0 | 0.00 | 0.97 | 0.97 | 90 | 1012.2 |
| 20260508011717 | 12 | 0 | 0.0 | 0.0 | 0.00 | 0.97 | 0.97 | 90 | 1012.4 |
| 20260508011214 | 12 | 0 | 0.0 | 0.0 | 0.00 | 0.97 | 0.97 | 90 | 1012.1 |
| 20260508010711 | 12 | 0 | 0.0 | 0.0 | 0.00 | 0.97 | 0.97 | 90 | 1012.1 |
| 20260508010209 | 12 | 0 | 0.0 | 0.0 | 0.00 | 0.97 | 0.97 | 90 | 1012.2 |
| 20260508005706 | 12 | 0 | 0.0 | 0.0 | 0.00 | 0.97 | 0.97 | 90 | 1012.1 |
| 20260508005202 | 12 | 0 | 0.0 | 0.0 | 0.00 | 0.97 | 0.97 | 90 | 1012.0 |
| 20260508004658 | 12 | 0 | 0.0 | 0.0 | 0.00 | 0.97 | 0.97 | 90 | 1012.0 |
| 20260508004154 | 12 | 0 | 0.0 | 0.0 | 0.00 | 0.97 | 0.97 | 90 | 1012.1 |
| 20260508003651 | 12 | 0 | 0.0 | 0.0 | 0.00 | 0.97 | 0.97 | 90 | 1012.4 |
| 20260508003149 | 12 | 0 | 0.0 | 0.0 | 0.00 | 0.97 | 0.97 | 90 | 1012.3 |
| 20260508002645 | 12 | 0 | 0.0 | 0.0 | 0.00 | 0.97 | 0.97 | 90 | 1012.4 |
| 20260508002143 | 12 | 0 | 0.0 | 0.0 | 0.00 | 0.97 | 0.97 | 90 | 1012.2 |
| 20260508001638 | 12 | 0 | 0.0 | 0.0 | 0.00 | 0.97 | 0.97 | 90 | 1012.3 |
| 20260508001134 | 12 | 0 | 0.0 | 0.0 | 0.00 | 0.97 | 0.97 | 90 | 1012.3 |
| 20260508000630 | 12 | 0 | 0.0 | 0.0 | 0.00 | 0.97 | 0.97 | 90 | 1012.0 |
| 20260508000128 | 12 | 0 | 0.0 | 0.0 | 0.00 | 0.97 | 0.97 | 90 | 1012.0 |
| 20260507235624 | 12 | 0 | 0.0 | 4.8 | 0.00 | 0.97 | 0.97 | 90 | 1011.9 |
| 20260507235122 | 12 | 0 | 1.6 | 3.2 | 0.00 | 0.97 | 0.97 | 90 | 1011.5 |
| 20260507234618 | 12 | 0 | 0.0 | 1.6 | 0.00 | 0.97 | 0.97 | 90 | 1011.8 |
| 20260507234114 | 12 | 8 | 0.0 | 0.0 | 0.00 | 0.97 | 0.97 | 90 | 1011.9 |
| 20260507233611 | 12 | 348 | 0.0 | 3.2 | 0.00 | 0.97 | 0.97 | 90 | 1011.6 |
| 20260507233110 | 12 | 54 | 0.0 | 0.0 | 0.00 | 0.97 | 0.97 | 90 | 1011.6 |
| 20260507232606 | 13 | 353 | 0.0 | 0.0 | 0.00 | 0.97 | 0.97 | 90 | 1011.3 |
| 20260507232103 | 13 | 353 | 0.0 | 0.0 | 0.00 | 0.97 | 0.97 | 90 | 1011.1 |
| 20260507231600 | 13 | 0 | 0.0 | 1.6 | 0.00 | 0.97 | 0.97 | 90 | 1011.1 |
| 20260507231057 | 13 | 0 | 0.0 | 0.0 | 0.00 | 0.97 | 0.97 | 90 | 1011.0 |
| 20260507230553 | 13 | 345 | 0.0 | 1.6 | 0.00 | 0.97 | 0.97 | 90 | 1011.1 |
| 20260507230050 | 13 | 69 | 0.0 | 3.2 | 0.00 | 0.97 | 0.97 | 90 | 1011.1 |
| 20260507225545 | 13 | 90 | 0.0 | 3.2 | 0.00 | 0.97 | 0.97 | 90 | 1011.1 |
| 20260507225042 | 13 | 270 | 0.0 | 0.0 | 0.00 | 0.97 | 0.97 | 90 | 1011.1 |
| 20260507224537 | 13 | 300 | 0.0 | 3.2 | 0.00 | 0.97 | 0.97 | 90 | 1011.0 |
| 20260507224034 | 13 | 90 | 0.0 | 0.0 | 0.00 | 0.97 | 0.97 | 90 | 1010.9 |
| 20260507223530 | 13 | 90 | 0.0 | 3.2 | 0.00 | 0.97 | 0.97 | 90 | 1011.0 |
| 20260507223028 | 13 | 353 | 0.0 | 4.8 | 0.00 | 0.97 | 0.97 | 90 | 1010.8 |
| 20260507222525 | 13 | 90 | 0.0 | 1.6 | 0.00 | 0.97 | 0.97 | 90 | 1010.7 |
| 20260507222021 | 13 | 63 | 0.0 | 3.2 | 0.00 | 0.97 | 0.97 | 90 | 1010.9 |
| 20260507221517 | 13 | 90 | 0.0 | 3.2 | 0.00 | 0.97 | 0.97 | 90 | 1010.7 |
| 20260507221014 | 13 | 90 | 0.0 | 1.6 | 0.00 | 0.97 | 0.97 | 90 | 1010.7 |
| 20260507220512 | 13 | 340 | 0.0 | 6.4 | 0.00 | 0.97 | 0.97 | 90 | 1010.6 |
| 20260507220009 | 13 | 90 | 0.0 | 3.2 | 0.00 | 0.97 | 0.97 | 90 | 1010.7 |
| 20260507215505 | 13 | 74 | 0.0 | 1.6 | 0.00 | 0.97 | 0.97 | 90 | 1010.5 |
| 20260507215003 | 13 | 90 | 0.0 | 3.2 | 0.00 | 0.97 | 0.97 | 90 | 1010.6 |
| 20260507214459 | 13 | 350 | 3.2 | 11.3 | 0.00 | 0.97 | 0.97 | 90 | 1010.8 |
| 20260507213955 | 13 | 23 | 3.2 | 4.8 | 0.00 | 0.97 | 0.97 | 90 | 1011.0 |
| 20260507213452 | 13 | 74 | 3.2 | 4.8 | 0.00 | 0.97 | 0.97 | 90 | 1010.7 |
| 20260507212949 | 13 | 14 | 0.0 | 3.2 | 0.00 | 0.97 | 0.97 | 90 | 1010.3 |
| 20260507212444 | 13 | 297 | 3.2 | 6.4 | 0.00 | 0.97 | 0.97 | 90 | 1010.6 |
| 20260507211942 | 13 | 307 | 4.8 | 4.8 | 0.00 | 0.97 | 0.97 | 90 | 1010.3 |
| 20260507211438 | 13 | 353 | 0.0 | 4.8 | 0.00 | 0.97 | 0.97 | 90 | 1010.8 |
| 20260507210935 | 13 | 75 | 1.6 | 6.4 | 0.00 | 0.97 | 0.97 | 90 | 1010.6 |
| 20260507210432 | 13 | 56 | 0.0 | 4.8 | 0.00 | 0.97 | 0.97 | 90 | 1010.4 |
| 20260507205928 | 13 | 263 | 1.6 | 6.4 | 0.00 | 0.97 | 0.97 | 90 | 1010.4 |
| 20260507205426 | 13 | 0 | 1.6 | 11.3 | 0.00 | 0.97 | 0.97 | 90 | 1010.7 |
| 20260507204922 | 13 | 23 | 0.0 | 8.0 | 0.00 | 0.97 | 0.97 | 90 | 1010.6 |
| 20260507204418 | 13 | 5 | 0.0 | 4.8 | 0.00 | 0.97 | 0.97 | 90 | 1010.6 |
| 20260507203916 | 13 | 90 | 1.6 | 4.8 | 0.00 | 0.97 | 0.97 | 90 | 1010.4 |
| 20260507203414 | 13 | 175 | 0.0 | 4.8 | 0.00 | 0.97 | 0.97 | 90 | 1010.6 |
| 20260507202910 | 13 | 50 | 0.0 | 4.8 | 0.18 | 0.97 | 0.97 | 90 | 1010.7 |
| 20260507202407 | 12 | 35 | 0.0 | 3.2 | 0.18 | 0.97 | 0.97 | 90 | 1010.6 |
| 20260507201902 | 12 | 90 | 0.0 | 1.6 | 0.30 | 0.94 | 0.94 | 90 | 1010.7 |
| 20260507201358 | 12 | 350 | 3.2 | 3.2 | 0.48 | 0.94 | 0.94 | 90 | 1010.9 |
| 20260507200854 | 12 | 337 | 0.0 | 4.8 | 0.30 | 0.89 | 0.89 | 90 | 1011.0 |
| 20260507200350 | 13 | 289 | 0.0 | 4.8 | 0.43 | 0.86 | 0.86 | 89 | 1010.5 |
| 20260507195847 | 13 | 112 | 3.2 | 4.8 | 0.48 | 0.84 | 0.84 | 89 | 1010.6 |
| 20260507195344 | 13 | 312 | 0.0 | 8.0 | 0.00 | 0.76 | 0.76 | 89 | 1010.7 |
| 20260507194841 | 13 | 54 | 0.0 | 3.2 | 0.00 | 0.76 | 0.76 | 90 | 1011.0 |
| 20260507194337 | 13 | 0 | 0.0 | 3.2 | 0.00 | 0.76 | 0.76 | 90 | 1010.7 |
| 20260507193834 | 13 | 48 | 3.2 | 4.8 | 0.00 | 0.76 | 0.76 | 90 | 1010.3 |
| 20260507193332 | 13 | 21 | 0.0 | 3.2 | 0.00 | 0.76 | 0.76 | 90 | 1010.7 |
| 20260507192827 | 13 | 262 | 0.0 | 4.8 | 0.00 | 0.76 | 0.76 | 90 | 1010.2 |
| 20260507192324 | 13 | 25 | 4.8 | 4.8 | 0.00 | 0.76 | 0.76 | 90 | 1010.3 |
| 20260507191820 | 13 | 15 | 0.0 | 3.2 | 0.00 | 0.76 | 0.76 | 90 | 1010.6 |
| 20260507191317 | 13 | 32 | 1.6 | 11.3 | 0.00 | 0.76 | 0.76 | 90 | 1010.6 |
| 20260507190814 | 13 | 16 | 3.2 | 6.4 | 0.00 | 0.76 | 0.76 | 90 | 1010.6 |
| 20260507190312 | 13 | 60 | 1.6 | 4.8 | 0.00 | 0.76 | 0.76 | 90 | 1010.5 |
| 20260507185811 | 13 | 23 | 1.6 | 3.2 | 0.00 | 0.76 | 0.76 | 90 | 1010.6 |
| 20260507185307 | 13 | 275 | 0.0 | 6.4 | 0.00 | 0.76 | 0.76 | 90 | 1010.7 |
| 20260507184804 | 13 | 121 | 4.8 | 6.4 | 0.00 | 0.76 | 0.76 | 90 | 1010.7 |
| 20260507184302 | 13 | 12 | 1.6 | 3.2 | 0.00 | 0.76 | 0.76 | 90 | 1010.8 |
| 20260507183758 | 13 | 283 | 0.0 | 6.4 | 0.00 | 0.76 | 0.76 | 89 | 1010.3 |
| 20260507183256 | 13 | 0 | 6.4 | 6.4 | 0.00 | 0.76 | 0.76 | 89 | 1010.8 |
| 20260507182753 | 13 | 334 | 6.4 | 8.0 | 0.00 | 0.76 | 0.76 | 90 | 1010.6 |
| 20260507182248 | 14 | 253 | 0.0 | 3.2 | 0.00 | 0.76 | 0.76 | 90 | 1010.7 |
| 20260507181745 | 13 | 29 | 0.0 | 1.6 | 0.00 | 0.76 | 0.76 | 90 | 1010.4 |
| 20260507181241 | 13 | 172 | 0.0 | 4.8 | 0.00 | 0.76 | 0.76 | 90 | 1010.5 |
| 20260507180738 | 13 | 53 | 4.8 | 6.4 | 0.00 | 0.76 | 0.76 | 90 | 1010.5 |
| 20260507180235 | 13 | 7 | 4.8 | 4.8 | 0.00 | 0.76 | 0.76 | 90 | 1010.7 |
| 20260507175730 | 13 | 114 | 0.0 | 4.8 | 0.00 | 0.76 | 0.76 | 89 | 1010.7 |
| 20260507175228 | 13 | 86 | 4.8 | 8.0 | 0.00 | 0.76 | 0.76 | 89 | 1010.5 |
| 20260507174725 | 14 | 4 | 3.2 | 4.8 | 0.00 | 0.76 | 0.76 | 90 | 1010.8 |
| 20260507174223 | 14 | 77 | 1.6 | 6.4 | 0.00 | 0.76 | 0.76 | 89 | 1010.8 |
| 20260507173720 | 14 | 348 | 0.0 | 8.0 | 0.00 | 0.76 | 0.76 | 89 | 1010.9 |
| 20260507173217 | 15 | 70 | 0.0 | 3.2 | 0.00 | 0.76 | 0.76 | 89 | 1010.8 |
| 20260507172714 | 15 | 29 | 3.2 | 4.8 | 0.00 | 0.76 | 0.76 | 89 | 1010.8 |
| 20260507172210 | 15 | 63 | 3.2 | 6.4 | 0.00 | 0.76 | 0.76 | 90 | 1010.9 |
| 20260507171704 | 15 | 26 | 0.0 | 4.8 | 0.00 | 0.76 | 0.76 | 90 | 1010.9 |
| 20260507171202 | 15 | 17 | 3.2 | 4.8 | 0.00 | 0.76 | 0.76 | 90 | 1010.8 |
| 20260507170658 | 16 | 319 | 0.0 | 4.8 | 0.00 | 0.76 | 0.76 | 90 | 1010.4 |
| 20260507170156 | 16 | 66 | 1.6 | 8.0 | 0.00 | 0.76 | 0.76 | 90 | 1010.5 |
| 20260507165652 | 16 | 203 | 1.6 | 6.4 | 0.00 | 0.76 | 0.76 | 90 | 1010.2 |
| 20260507165148 | 16 | 96 | 0.0 | 3.2 | 0.00 | 0.76 | 0.76 | 90 | 1010.2 |
| 20260507164644 | 16 | 0 | 0.0 | 4.8 | 0.00 | 0.76 | 0.76 | 90 | 1009.9 |
| 20260507164141 | 16 | 35 | 0.0 | 4.8 | 0.00 | 0.76 | 0.76 | 90 | 1009.6 |
| 20260507163638 | 16 | 352 | 6.4 | 8.0 | 0.00 | 0.76 | 0.76 | 90 | 1009.7 |
| 20260507163136 | 16 | 338 | 3.2 | 6.4 | 0.13 | 0.76 | 0.76 | 90 | 1009.9 |
| 20260507162632 | 16 | 26 | 3.2 | 4.8 | 0.00 | 0.74 | 0.74 | 90 | 1009.6 |
| 20260507162128 | 16 | 114 | 1.6 | 8.0 | 0.00 | 0.74 | 0.74 | 90 | 1010.1 |
| 20260507161624 | 16 | 6 | 1.6 | 4.8 | 0.00 | 0.74 | 0.74 | 90 | 1009.9 |
| 20260507161121 | 16 | 240 | 0.0 | 8.0 | 0.00 | 0.74 | 0.74 | 90 | 1010.2 |
| 20260507160618 | 16 | 355 | 0.0 | 0.0 | 0.00 | 0.74 | 0.74 | 90 | 1010.3 |
| 20260507160114 | 16 | 81 | 0.0 | 3.2 | 0.00 | 0.74 | 0.74 | 90 | 1010.4 |
| 20260507155609 | 16 | 32 | 0.0 | 3.2 | 0.00 | 0.74 | 0.74 | 90 | 1010.4 |
| 20260507155107 | 16 | 15 | 0.0 | 1.6 | 0.00 | 0.74 | 0.74 | 90 | 1010.5 |
| 20260507154604 | 17 | 29 | 0.0 | 4.8 | 0.00 | 0.74 | 0.74 | 89 | 1010.4 |
| 20260507154100 | 17 | 90 | 0.0 | 0.0 | 0.00 | 0.74 | 0.74 | 89 | 1010.7 |
| 20260507153557 | 17 | 354 | 0.0 | 3.2 | 0.00 | 0.74 | 0.74 | 90 | 1010.8 |
| 20260507153053 | 17 | 356 | 3.2 | 3.2 | 0.00 | 0.74 | 0.74 | 90 | 1010.6 |
| 20260507152550 | 17 | 261 | 0.0 | 0.0 | 0.00 | 0.74 | 0.74 | 90 | 1010.4 |
| 20260507152046 | 17 | 261 | 0.0 | 0.0 | 0.00 | 0.74 | 0.74 | 90 | 1010.7 |
| 20260507151542 | 17 | 261 | 0.0 | 0.0 | 0.00 | 0.74 | 0.74 | 90 | 1010.8 |
| 20260507151039 | 17 | 35 | 0.0 | 4.8 | 0.00 | 0.74 | 0.74 | 90 | 1010.7 |
| 20260507150536 | 17 | 0 | 0.0 | 0.0 | 0.00 | 0.74 | 0.74 | 90 | 1011.1 |
| 20260507150028 | 17 | 0 | 0.0 | 0.0 | 0.00 | 0.74 | 0.74 | 90 | 1010.3 |
| 20260507145522 | 17 | 0 | 0.0 | 1.6 | 0.00 | 0.74 | 0.74 | 90 | 1010.2 |
| 20260507145020 | 17 | 0 | 0.0 | 0.0 | 0.00 | 0.74 | 0.74 | 90 | 1009.9 |
| 20260507144516 | 17 | 0 | 0.0 | 1.6 | 0.00 | 0.74 | 0.74 | 90 | 1009.8 |
| 20260507144014 | 17 | 48 | 0.0 | 3.2 | 0.00 | 0.74 | 0.74 | 90 | 1010.1 |
| 20260507143511 | 17 | 0 | 0.0 | 0.0 | 0.00 | 0.74 | 0.74 | 90 | 1010.4 |
| 20260507143009 | 17 | 5 | 1.6 | 1.6 | 0.18 | 0.74 | 0.74 | 90 | 1010.3 |
| 20260507142504 | 17 | 180 | 0.0 | 0.0 | 0.00 | 0.71 | 0.71 | 90 | 1010.3 |
| 20260507142001 | 17 | 180 | 0.0 | 0.0 | 0.00 | 0.71 | 0.71 | 90 | 1010.2 |
| 20260507141456 | 17 | 180 | 0.0 | 0.0 | 0.00 | 0.71 | 0.71 | 90 | 1010.4 |
| 20260507140948 | 17 | 180 | 0.0 | 0.0 | 0.13 | 0.71 | 0.71 | 90 | 1010.4 |
| 20260507140444 | 17 | 23 | 0.0 | 3.2 | 0.13 | 0.71 | 0.71 | 90 | 1010.1 |
| 20260507135942 | 17 | 0 | 0.0 | 0.0 | 0.18 | 0.69 | 0.69 | 90 | 1010.1 |
| 20260507135438 | 17 | 0 | 0.0 | 0.0 | 0.30 | 0.69 | 0.69 | 90 | 1010.3 |
| 20260507134936 | 17 | 286 | 0.0 | 1.6 | 0.48 | 0.66 | 0.66 | 90 | 1009.9 |
| 20260507134432 | 17 | 286 | 0.0 | 0.0 | 0.30 | 0.61 | 0.61 | 90 | 1009.7 |
| 20260507133928 | 17 | 270 | 0.0 | 0.0 | 0.13 | 0.58 | 0.58 | 90 | 1009.8 |
| 20260507133424 | 17 | 270 | 0.0 | 0.0 | 0.18 | 0.56 | 0.56 | 90 | 1009.8 |
| 20260507132923 | 17 | 270 | 0.0 | 0.0 | 0.30 | 0.56 | 0.56 | 90 | 1010.2 |
| 20260507132419 | 17 | 270 | 0.0 | 1.6 | 0.43 | 0.53 | 0.53 | 90 | 1009.9 |
| 20260507131915 | 17 | 90 | 0.0 | 0.0 | 0.48 | 0.51 | 0.51 | 90 | 1010.4 |
| 20260507131413 | 17 | 90 | 0.0 | 0.0 | 0.30 | 0.46 | 0.46 | 89 | 1010.5 |
| 20260507130910 | 17 | 90 | 0.0 | 0.0 | 0.43 | 0.43 | 0.43 | 89 | 1011.0 |
| 20260507130406 | 17 | 106 | 0.0 | 1.6 | 0.61 | 0.38 | 0.38 | 89 | 1011.1 |
| 20260507125906 | 17 | 157 | 0.0 | 0.0 | 0.66 | 0.36 | 0.36 | 89 | 1011.3 |
| 20260507125403 | 17 | 157 | 0.0 | 0.0 | 0.48 | 0.33 | 0.33 | 89 | 1011.3 |
| 20260507124900 | 17 | 180 | 0.0 | 1.6 | 0.13 | 0.25 | 0.25 | 89 | 1011.4 |
| 20260507124355 | 17 | 345 | 0.0 | 0.0 | 0.18 | 0.23 | 0.23 | 89 | 1011.4 |
| 20260507123855 | 17 | 345 | 0.0 | 0.0 | 0.00 | 0.20 | 0.20 | 89 | 1011.3 |
| 20260507123351 | 17 | 345 | 0.0 | 1.6 | 0.13 | 0.20 | 0.20 | 89 | 1011.3 |
| 20260507122848 | 17 | 12 | 0.0 | 0.0 | 0.30 | 0.20 | 0.20 | 89 | 1011.2 |
| 20260507122343 | 17 | 12 | 0.0 | 3.2 | 0.13 | 0.15 | 0.15 | 89 | 1010.9 |
| 20260507121840 | 17 | 12 | 0.0 | 3.2 | 0.13 | 0.15 | 0.15 | 89 | 1010.9 |
| 20260507121335 | 17 | 246 | 0.0 | 1.6 | 0.00 | 0.13 | 0.13 | 89 | 1010.9 |
| 20260507120832 | 17 | 0 | 0.0 | 3.2 | 0.00 | 0.13 | 0.13 | 89 | 1010.8 |
| 20260507120328 | 17 | 345 | 0.0 | 0.0 | 0.00 | 0.13 | 0.13 | 89 | 1011.0 |
| 20260507115825 | 17 | 345 | 0.0 | 0.0 | 0.18 | 0.13 | 0.13 | 89 | 1011.0 |
| 20260507115320 | 17 | 345 | 0.0 | 0.0 | 0.18 | 0.13 | 0.13 | 89 | 1010.9 |
| 20260507114816 | 17 | 345 | 0.0 | 0.0 | 0.00 | 0.10 | 0.10 | 89 | 1010.6 |
| 20260507114314 | 17 | 340 | 0.0 | 1.6 | 0.00 | 0.10 | 0.10 | 89 | 1010.8 |
| 20260507113811 | 17 | 345 | 0.0 | 0.0 | 0.00 | 0.10 | 0.10 | 89 | 1011.0 |
| 20260507113308 | 17 | 345 | 0.0 | 0.0 | 0.00 | 0.10 | 0.10 | 89 | 1010.6 |
| 20260507112806 | 17 | 345 | 0.0 | 0.0 | 0.00 | 0.10 | 0.10 | 89 | 1010.7 |
| 20260507112306 | 17 | 345 | 0.0 | 0.0 | 0.13 | 0.10 | 0.10 | 89 | 1010.7 |
| 20260507111800 | 17 | 7 | 0.0 | 1.6 | 0.13 | 0.10 | 0.10 | 89 | 1010.5 |
| 20260507111256 | 17 | 195 | 0.0 | 0.0 | 0.00 | 0.08 | 0.08 | 89 | 1010.5 |
| 20260507110752 | 17 | 195 | 0.0 | 0.0 | 0.00 | 0.08 | 0.08 | 89 | 1010.3 |
| 20260507110249 | 17 | 195 | 0.0 | 0.0 | 0.00 | 0.08 | 0.08 | 89 | 1010.8 |
| 20260507105746 | 17 | 195 | 0.0 | 0.0 | 0.00 | 0.08 | 0.08 | 89 | 1010.6 |
| 20260507105236 | 17 | 195 | 0.0 | 0.0 | 0.00 | 0.08 | 0.08 | 89 | 1010.7 |
| 20260507104734 | 17 | 195 | 0.0 | 0.0 | 0.00 | 0.08 | 0.08 | 89 | 1010.7 |
| 20260507104231 | 17 | 195 | 0.0 | 0.0 | 0.00 | 0.08 | 0.08 | 89 | 1010.7 |
| 20260507103726 | 17 | 195 | 0.0 | 0.0 | 0.00 | 0.08 | 0.08 | 89 | 1010.2 |
| 20260507103223 | 17 | 195 | 0.0 | 0.0 | 0.00 | 0.08 | 0.08 | 89 | 1010.5 |
| 20260507102719 | 17 | 215 | 0.0 | 3.2 | 0.00 | 0.08 | 0.08 | 89 | 1010.3 |
| 20260507102215 | 17 | 180 | 0.0 | 0.0 | 0.00 | 0.08 | 0.08 | 89 | 1010.3 |
| 20260507101711 | 17 | 180 | 0.0 | 0.0 | 0.00 | 0.08 | 0.08 | 89 | 1010.3 |
| 20260507101206 | 17 | 180 | 0.0 | 0.0 | 0.00 | 0.08 | 0.08 | 89 | 1010.4 |
| 20260507100704 | 17 | 187 | 0.0 | 0.0 | 0.00 | 0.08 | 0.08 | 89 | 1010.6 |
| 20260507100203 | 17 | 187 | 0.0 | 0.0 | 0.00 | 0.08 | 0.08 | 89 | 1010.6 |
| 20260507095701 | 17 | 187 | 0.0 | 0.0 | 0.00 | 0.08 | 0.08 | 89 | 1010.3 |
| 20260507095157 | 17 | 187 | 0.0 | 0.0 | 0.00 | 0.08 | 0.08 | 89 | 1010.4 |
| 20260507094654 | 17 | 187 | 0.0 | 0.0 | 0.00 | 0.08 | 0.08 | 89 | 1010.8 |
| 20260507094150 | 17 | 187 | 0.0 | 0.0 | 0.00 | 0.08 | 0.08 | 89 | 1010.6 |
| 20260507093648 | 17 | 187 | 0.0 | 0.0 | 0.00 | 0.08 | 0.08 | 89 | 1010.4 |
| 20260507093147 | 17 | 187 | 0.0 | 0.0 | 0.00 | 0.08 | 0.08 | 89 | 1010.5 |
| 20260507092643 | 17 | 126 | 0.0 | 1.6 | 0.00 | 0.08 | 0.08 | 88 | 1010.4 |
| 20260507092139 | 17 | 90 | 0.0 | 0.0 | 0.00 | 0.08 | 0.08 | 88 | 1010.6 |
| 20260507091636 | 17 | 286 | 0.0 | 0.0 | 0.00 | 0.08 | 0.08 | 88 | 1011.3 |
| 20260507091132 | 17 | 325 | 0.0 | 1.6 | 0.00 | 0.08 | 0.08 | 88 | 1011.0 |
| 20260507090627 | 17 | 8 | 0.0 | 3.2 | 0.00 | 0.08 | 0.08 | 88 | 1010.5 |
| 20260507090125 | 17 | 203 | 3.2 | 3.2 | 0.00 | 0.08 | 0.08 | 88 | 1010.2 |
| 20260507085622 | 17 | 210 | 3.2 | 3.2 | 0.00 | 0.08 | 0.08 | 88 | 1010.3 |
| 20260507085118 | 17 | 180 | 0.0 | 1.6 | 0.00 | 0.08 | 0.08 | 88 | 1010.1 |
| 20260507084615 | 17 | 209 | 0.0 | 1.6 | 0.00 | 0.08 | 0.08 | 88 | 1009.8 |
| 20260507084112 | 17 | 255 | 1.6 | 4.8 | 0.00 | 0.08 | 0.08 | 88 | 1010.1 |
| 20260507083609 | 17 | 234 | 0.0 | 4.8 | 0.00 | 0.08 | 0.08 | 88 | 1009.9 |
| 20260507083106 | 17 | 220 | 3.2 | 3.2 | 0.00 | 0.08 | 0.08 | 88 | 1010.3 |
| 20260507082602 | 17 | 180 | 0.0 | 8.0 | 0.00 | 0.08 | 0.08 | 88 | 1009.9 |
| 20260507082058 | 17 | 246 | 1.6 | 6.4 | 0.00 | 0.08 | 0.08 | 88 | 1010.5 |
| 20260507081554 | 17 | 206 | 3.2 | 6.4 | 0.00 | 0.08 | 0.08 | 88 | 1010.2 |
| 20260507081052 | 17 | 236 | 0.0 | 6.4 | 0.00 | 0.08 | 0.08 | 88 | 1010.3 |
| 20260507080547 | 17 | 180 | 3.2 | 4.8 | 0.00 | 0.08 | 0.08 | 88 | 1010.2 |
| 20260507080044 | 17 | 157 | 3.2 | 4.8 | 0.18 | 0.08 | 0.08 | 88 | 1010.3 |
| 20260507075539 | 17 | 189 | 3.2 | 4.8 | 0.18 | 0.08 | 0.08 | 88 | 1010.2 |
| 20260507075036 | 17 | 203 | 0.0 | 3.2 | 0.00 | 0.05 | 0.05 | 88 | 1010.9 |
| 20260507074532 | 17 | 180 | 0.0 | 4.8 | 0.00 | 0.05 | 0.05 | 88 | 1010.6 |
| 20260507074031 | 17 | 98 | 0.0 | 4.8 | 0.00 | 0.05 | 0.05 | 88 | 1011.0 |
| 20260507073527 | 17 | 180 | 0.0 | 0.0 | 0.00 | 0.05 | 0.05 | 88 | 1011.4 |
| 20260507073024 | 17 | 214 | 3.2 | 6.4 | 0.00 | 0.05 | 0.05 | 88 | 1010.8 |
| 20260507072521 | 17 | 174 | 1.6 | 4.8 | 0.13 | 0.05 | 0.05 | 88 | 1011.0 |
| 20260507072018 | 17 | 106 | 0.0 | 0.0 | 0.00 | 0.03 | 0.03 | 87 | 1011.3 |
| 20260507071516 | 17 | 106 | 0.0 | 3.2 | 0.00 | 0.03 | 0.03 | 87 | 1011.0 |
| 20260507071012 | 17 | 124 | 3.2 | 3.2 | 0.00 | 0.03 | 0.03 | 87 | 1011.1 |
| 20260507070509 | 17 | 90 | 0.0 | 0.0 | 0.00 | 0.03 | 0.03 | 87 | 1011.2 |
| 20260507070010 | 17 | 90 | 0.0 | 0.0 | 0.00 | 0.03 | 0.03 | 87 | 1011.4 |
| 20260507065502 | 17 | 90 | 0.0 | 0.0 | 0.00 | 0.03 | 0.03 | 87 | 1011.2 |
| 20260507064959 | 17 | 90 | 0.0 | 0.0 | 0.00 | 0.03 | 0.03 | 87 | 1011.0 |
| 20260507064458 | 17 | 90 | 0.0 | 0.0 | 0.00 | 0.03 | 0.03 | 87 | 1011.2 |
| 20260507063955 | 17 | 90 | 0.0 | 1.6 | 0.00 | 0.03 | 0.03 | 87 | 1010.9 |
| 20260507063452 | 17 | 270 | 0.0 | 0.0 | 0.00 | 0.03 | 0.03 | 87 | 1011.1 |
| 20260507062949 | 17 | 270 | 0.0 | 0.0 | 0.00 | 0.03 | 0.03 | 87 | 1011.4 |
| 20260507062447 | 17 | 270 | 0.0 | 1.6 | 0.00 | 0.03 | 0.03 | 87 | 1011.8 |
| 20260507061944 | 17 | 255 | 0.0 | 0.0 | 0.00 | 0.03 | 0.03 | 87 | 1011.3 |
| 20260507061442 | 17 | 191 | 3.2 | 4.8 | 0.00 | 0.03 | 0.03 | 87 | 1011.7 |
| 20260507060940 | 17 | 117 | 1.6 | 1.6 | 0.00 | 0.03 | 0.03 | 87 | 1012.1 |
| 20260507060436 | 17 | 180 | 3.2 | 8.0 | 0.00 | 0.03 | 0.03 | 87 | 1012.3 |
| 20260507055933 | 17 | 203 | 4.8 | 8.0 | 0.00 | 0.03 | 0.03 | 87 | 1012.4 |
| 20260507055428 | 17 | 243 | 0.0 | 4.8 | 0.00 | 0.03 | 0.03 | 87 | 1012.4 |
| 20260507054925 | 17 | 171 | 0.0 | 3.2 | 0.00 | 0.03 | 0.03 | 86 | 1012.5 |
| 20260507054421 | 17 | 254 | 0.0 | 1.6 | 0.00 | 0.03 | 0.03 | 86 | 1012.5 |
| 20260507053919 | 17 | 220 | 3.2 | 4.8 | 0.00 | 0.03 | 0.03 | 86 | 1012.5 |
| 20260507053416 | 17 | 257 | 0.0 | 1.6 | 0.18 | 0.03 | 0.03 | 86 | 1012.2 |
| 20260507052915 | 17 | 165 | 0.0 | 3.2 | 0.18 | 0.03 | 0.03 | 86 | 1012.4 |
| 20260507052412 | 17 | 186 | 0.0 | 1.6 | 0.00 | 0.00 | 0.00 | 86 | 1013.0 |
| 20260507051903 | 17 | 254 | 0.0 | 1.6 | 0.00 | 0.00 | 0.00 | 86 | 1012.9 |
| 20260507051401 | 17 | 209 | 1.6 | 1.6 | 0.00 | 0.00 | 0.00 | 86 | 1012.2 |
| 20260507050858 | 17 | 270 | 0.0 | 1.6 | 0.00 | 0.00 | 0.00 | 85 | 1012.6 |
| 20260507050354 | 17 | 270 | 0.0 | 0.0 | 0.00 | 0.00 | 0.00 | 85 | 1012.6 |
| 20260507045851 | 17 | 270 | 0.0 | 0.0 | 0.00 | 0.00 | 0.00 | 85 | 1012.5 |
| 20260507045347 | 17 | 270 | 0.0 | 0.0 | 0.00 | 0.00 | 0.00 | 85 | 1012.8 |